FW6610 Weather Reports


time (UTC)temp
C
wind
direction
speed
KPH
gust
KPH
rain 1hr
cm
rain 24hr
cm
rain mn
cm
humidity
%
barometer
mb
20260510161544 19 218 0.0 8.0 0.00 0.48 0.00 76 1012.3
20260510161030 19 39 3.2 8.0 0.00 0.48 0.00 75 1012.4
20260510160531 19 139 3.2 8.0 0.00 0.48 0.00 75 1012.3
20260510160041 18 137 1.6 8.0 0.00 0.48 0.00 77 1012.5
20260510155532 18 126 4.8 8.0 0.00 0.53 0.00 79 1012.5
20260510155030 18 53 3.2 8.0 0.00 0.53 0.00 78 1012.6
20260510154538 17 120 1.6 8.0 0.00 0.53 0.00 78 1012.7
20260510154030 17 207 3.2 8.0 0.00 0.53 0.00 79 1012.8
20260510153530 17 148 3.2 9.7 0.00 0.53 0.00 78 1012.8
20260510153040 17 137 4.8 9.7 0.00 0.53 0.00 80 1012.7
20260510152530 17 139 6.4 9.7 0.00 0.53 0.00 79 1012.9
20260510152033 17 250 1.6 8.0 0.00 0.53 0.00 81 1012.8
20260510151542 16 210 4.8 8.0 0.00 0.53 0.00 81 1012.9
20260510151030 16 120 1.6 4.8 0.00 0.53 0.00 84 1013.0
20260510150532 16 162 3.2 6.4 0.00 0.53 0.00 84 1012.9
20260510150113 16 224 1.6 9.7 0.00 0.53 0.00 84 1013.0
20260510145529 16 150 3.2 9.7 0.00 0.58 0.00 85 1012.8
20260510145029 15 253 1.6 4.8 0.00 0.58 0.00 86 1012.9
20260510144541 15 193 1.6 4.8 0.00 0.58 0.00 87 1012.8
20260510144030 15 141 1.6 6.4 0.00 0.58 0.00 87 1012.9
20260510143530 14 120 3.2 6.4 0.00 0.58 0.00 87 1013.0
20260510143043 14 0 3.2 4.8 0.00 0.58 0.00 88 1013.0
20260510142531 14 147 1.6 3.2 0.00 0.58 0.00 88 1012.9
20260510142030 14 0 0.0 8.0 0.00 0.58 0.00 89 1013.0
20260510141542 14 188 1.6 8.0 0.00 0.58 0.00 89 1013.0
20260510141031 13 140 1.6 3.2 0.00 0.58 0.00 88 1013.0
20260510140530 13 130 1.6 3.2 0.00 0.58 0.00 89 1013.0
20260510140042 13 0 0.0 1.6 0.00 0.58 0.00 90 1013.1
20260510135530 13 214 0.0 1.6 0.00 0.64 0.00 90 1013.0
20260510135030 13 0 0.0 3.2 0.00 0.64 0.00 92 1013.1
20260510134545 13 138 1.6 4.8 0.00 0.64 0.00 91 1013.1
20260510134029 13 0 0.0 4.8 0.00 0.64 0.00 92 1013.2
20260510133529 13 203 1.6 4.8 0.00 0.64 0.00 93 1013.2
20260510133045 12 0 1.6 4.8 0.00 0.64 0.00 93 1013.2
20260510132529 12 151 0.0 3.2 0.00 0.64 0.00 95 1013.3
20260510132030 12 148 0.0 3.2 0.00 0.64 0.00 96 1013.2
20260510131543 12 146 0.0 3.2 0.00 0.64 0.00 96 1013.1
20260510131030 12 0 0.0 3.2 0.00 0.64 0.00 96 1013.0
20260510130532 12 151 0.0 1.6 0.00 0.64 0.00 97 1013.1
20260510130042 12 0 0.0 1.6 0.00 0.64 0.00 97 1012.9
20260510125532 11 0 0.0 1.6 0.00 0.69 0.00 97 1013.1
20260510125030 11 142 0.0 1.6 0.00 0.69 0.00 97 1013.0
20260510124539 11 142 0.0 1.6 0.00 0.69 0.00 97 1012.9
20260510124032 11 0 0.0 1.6 0.00 0.69 0.00 97 1013.1
20260510123530 11 0 0.0 1.6 0.00 0.69 0.00 98 1013.0
20260510123046 11 0 0.0 1.6 0.00 0.69 0.00 98 1013.0
20260510122529 11 138 0.0 1.6 0.00 0.69 0.00 98 1012.9
20260510122029 11 0 0.0 0.0 0.00 0.69 0.00 98 1012.9
20260510121545 11 0 0.0 0.0 0.00 0.69 0.00 98 1012.8
20260510121031 11 0 0.0 0.0 0.00 0.69 0.00 98 1012.9
20260510120531 11 0 0.0 0.0 0.00 0.69 0.00 98 1012.7
20260510120044 11 0 0.0 1.6 0.00 0.69 0.00 98 1012.8
20260510115530 11 0 0.0 1.6 0.00 0.71 0.00 98 1013.0
20260510115034 11 0 0.0 1.6 0.00 0.71 0.00 98 1012.8
20260510114547 11 0 0.0 1.6 0.00 0.71 0.00 98 1012.8
20260510114031 11 0 0.0 1.6 0.00 0.71 0.00 98 1013.0
20260510113530 11 0 0.0 1.6 0.00 0.71 0.00 98 1013.0
20260510113041 11 0 0.0 1.6 0.00 0.71 0.00 98 1012.9
20260510112534 11 135 0.0 0.0 0.00 0.71 0.00 98 1012.8
20260510112030 11 178 0.0 0.0 0.00 0.71 0.00 98 1012.9
20260510111538 11 0 0.0 0.0 0.00 0.71 0.00 98 1012.7
20260510111029 11 0 0.0 0.0 0.00 0.71 0.00 98 1012.7
20260510110533 11 0 0.0 0.0 0.00 0.71 0.00 98 1012.5
20260510110046 10 0 0.0 0.0 0.00 0.71 0.00 98 1012.5
20260510105530 10 0 0.0 0.0 0.00 0.86 0.00 98 1012.5
20260510105030 10 0 0.0 0.0 0.00 0.86 0.00 98 1012.7
20260510104542 10 0 0.0 0.0 0.00 0.86 0.00 98 1012.7
20260510104029 10 0 0.0 0.0 0.00 0.86 0.00 98 1012.4
20260510103532 10 0 0.0 0.0 0.00 0.86 0.00 98 1012.3
20260510103044 10 0 0.0 1.6 0.00 0.86 0.00 98 1012.1
20260510102529 10 0 0.0 1.6 0.00 0.86 0.00 98 1012.1
20260510102033 10 0 0.0 1.6 0.00 0.86 0.00 98 1012.1
20260510101543 10 0 0.0 1.6 0.00 0.86 0.00 98 1012.1
20260510101030 10 0 0.0 1.6 0.00 0.86 0.00 98 1011.9
20260510100530 10 0 0.0 1.6 0.00 0.86 0.00 98 1012.1
20260510100045 10 106 0.0 0.0 0.00 0.86 0.00 98 1011.8
20260510095529 10 0 0.0 1.6 0.00 0.99 0.00 98 1011.5
20260510095029 10 0 0.0 1.6 0.00 0.99 0.00 98 1011.4
20260510094556 10 106 0.0 1.6 0.00 0.99 0.00 98 1011.3
20260510094030 10 105 0.0 1.6 0.00 0.99 0.00 98 1011.3
20260510093530 10 0 0.0 1.6 0.00 0.99 0.00 98 1011.3
20260510093059 10 144 0.0 3.2 0.00 0.99 0.00 98 1011.2
20260510092530 10 0 0.0 3.2 0.00 0.99 0.00 98 1011.2
20260510092030 10 0 0.0 1.6 0.00 0.99 0.00 98 1011.5
20260510091544 10 0 0.0 1.6 0.00 0.99 0.00 98 1011.4
20260510091030 10 138 0.0 1.6 0.00 0.99 0.00 98 1011.3
20260510090532 10 155 0.0 0.0 0.00 0.99 0.00 98 1011.3
20260510090053 10 0 0.0 0.0 0.00 0.99 0.00 98 1011.4
20260510085530 10 0 0.0 0.0 0.00 0.99 0.00 98 1011.2
20260510085030 10 0 0.0 0.0 0.00 0.99 0.00 98 1011.5
20260510084542 10 0 0.0 0.0 0.00 0.99 0.00 98 1011.7
20260510084030 10 0 0.0 0.0 0.00 0.99 0.00 98 1011.8
20260510083530 10 0 0.0 0.0 0.00 0.99 0.00 98 1011.9
20260510083051 10 0 0.0 0.0 0.00 0.99 0.00 98 1011.8
20260510082530 10 0 0.0 0.0 0.00 0.99 0.00 98 1011.8
20260510082034 10 0 0.0 0.0 0.00 0.99 0.00 98 1011.8
20260510081540 10 0 0.0 0.0 0.00 0.99 0.00 98 1011.8
20260510081030 10 0 0.0 0.0 0.00 0.99 0.00 98 1011.7
20260510080529 10 0 0.0 0.0 0.00 0.99 0.00 98 1011.8
20260510080046 10 0 0.0 0.0 0.00 0.99 0.00 98 1011.9
20260510075533 10 0 0.0 0.0 0.00 0.99 0.00 98 1011.9
20260510075029 10 0 0.0 0.0 0.00 0.99 0.00 98 1011.9
20260510074546 10 155 0.0 0.0 0.00 0.99 0.00 98 1011.9
20260510074031 10 0 0.0 0.0 0.00 0.99 0.00 98 1012.0
20260510073530 10 0 0.0 0.0 0.00 0.99 0.00 98 1012.0
20260510073052 10 0 0.0 0.0 0.00 0.99 0.00 98 1011.9
20260510072533 10 0 0.0 1.6 0.00 0.99 0.00 98 1011.7
20260510072030 10 0 0.0 1.6 0.00 0.99 0.00 98 1011.6
20260510071543 10 0 0.0 1.6 0.00 0.99 0.00 98 1011.5
20260510071030 10 0 0.0 1.6 0.00 0.99 0.00 98 1011.4
20260510070530 10 0 0.0 1.6 0.00 0.99 0.00 98 1011.5
20260510070140 10 0 0.0 1.6 0.00 0.99 0.00 98 1011.6
20260510065530 10 0 0.0 0.0 0.00 0.99 0.00 98 1011.6
20260510065030 10 0 0.0 0.0 0.00 0.99 0.00 98 1011.5
20260510064551 10 0 0.0 3.2 0.00 0.99 0.00 98 1011.6
20260510064029 10 0 0.0 3.2 0.00 0.99 0.00 98 1011.5
20260510063530 10 0 0.0 1.6 0.00 0.99 0.00 98 1011.6
20260510063044 10 134 0.0 1.6 0.00 0.99 0.00 98 1011.5
20260510062530 10 136 0.0 1.6 0.00 0.99 0.00 98 1011.5
20260510062029 10 0 0.0 3.2 0.00 0.99 0.00 98 1011.6
20260510061543 10 0 0.0 3.2 0.00 0.99 0.00 98 1011.4
20260510061029 10 0 0.0 0.0 0.00 0.99 0.00 98 1011.5
20260510060530 10 0 0.0 0.0 0.00 0.99 0.00 98 1011.5
20260510060045 10 0 0.0 0.0 0.00 0.99 0.00 98 1011.5
20260510055529 10 0 0.0 0.0 0.00 0.99 0.00 98 1011.5
20260510055029 10 0 0.0 0.0 0.00 0.99 0.00 98 1011.1
20260510054542 10 0 0.0 0.0 0.00 0.99 0.00 98 1011.3
20260510054033 10 0 0.0 0.0 0.00 0.99 0.00 98 1011.5
20260510053530 10 0 0.0 0.0 0.00 0.99 0.00 98 1011.5
20260510053041 10 0 0.0 0.0 0.00 0.99 0.00 98 1011.7
20260510052530 9 0 0.0 0.0 0.00 0.99 0.00 98 1011.6
20260510052030 9 0 0.0 0.0 0.00 0.99 0.00 98 1011.6
20260510051552 8 0 0.0 0.0 0.00 0.99 0.00 98 1011.7
20260510051029 8 0 0.0 0.0 0.00 0.99 0.00 98 1011.4
20260510050532 8 0 0.0 0.0 0.00 0.99 0.00 97 1011.4
20260510050044 8 0 0.0 0.0 0.00 0.99 0.00 97 1011.5
20260510045542 8 0 0.0 0.0 0.00 0.99 0.00 97 1011.4
20260510045030 8 0 0.0 0.0 0.00 0.99 0.00 97 1011.6
20260510044547 9 0 0.0 0.0 0.00 0.99 0.00 97 1011.3
20260510044029 9 0 0.0 0.0 0.00 0.99 0.00 97 1011.4
20260510043530 9 0 0.0 0.0 0.00 0.99 0.00 97 1011.5
20260510043045 9 0 0.0 0.0 0.00 0.99 0.00 97 1011.6
20260510042530 9 0 0.0 0.0 0.00 0.99 0.00 97 1011.5
20260510042030 9 0 0.0 0.0 0.00 0.99 0.00 97 1011.7
20260510041543 10 0 0.0 0.0 0.00 0.99 0.00 97 1011.5
20260510041030 10 0 0.0 0.0 0.00 0.99 0.00 97 1011.6
20260510040530 10 0 0.0 0.0 0.00 0.99 0.00 97 1011.7
20260510040051 10 0 0.0 0.0 0.00 0.99 0.00 97 1011.7
20260510035530 10 0 0.0 0.0 0.00 0.99 0.99 97 1011.4
20260510035030 10 0 0.0 1.6 0.00 0.99 0.99 97 1011.6
20260510034546 10 0 0.0 1.6 0.00 0.99 0.99 97 1011.7
20260510034030 10 0 0.0 0.0 0.00 0.99 0.99 97 1011.7
20260510033529 10 0 0.0 0.0 0.00 0.99 0.99 97 1011.6
20260510033043 10 0 0.0 0.0 0.00 0.99 0.99 97 1011.8
20260510032529 10 0 0.0 0.0 0.00 0.99 0.99 97 1011.8
20260510032029 10 0 0.0 0.0 0.00 0.99 0.99 97 1011.7
20260510031543 10 0 0.0 0.0 0.00 0.99 0.99 97 1011.7
20260510031029 10 0 0.0 0.0 0.00 0.99 0.99 97 1011.7
20260510030531 10 0 0.0 0.0 0.00 0.99 0.99 97 1011.8
20260510030052 10 0 0.0 0.0 0.00 0.99 0.99 97 1011.7
20260510025530 10 0 0.0 0.0 0.00 0.99 0.99 97 1011.6
20260510025030 10 0 0.0 0.0 0.00 0.99 0.99 97 1011.8
20260510024542 9 0 0.0 0.0 0.00 0.99 0.99 97 1011.7
20260510024030 9 0 0.0 0.0 0.00 0.99 0.99 97 1011.6
20260510023530 9 0 0.0 0.0 0.00 0.99 0.99 97 1011.6
20260510023049 9 0 0.0 0.0 0.00 0.99 0.99 97 1011.5
20260510022533 9 0 0.0 0.0 0.00 0.99 0.99 97 1011.6
20260510022030 9 0 0.0 0.0 0.00 0.99 0.99 97 1011.5
20260510021544 9 0 0.0 0.0 0.00 0.99 0.99 97 1011.6
20260510021029 9 0 0.0 0.0 0.00 0.99 0.99 97 1011.6
20260510020530 9 0 0.0 0.0 0.00 0.99 0.99 97 1011.9
20260510020044 9 0 0.0 0.0 0.00 0.99 0.99 97 1012.1
20260510015530 9 0 0.0 0.0 0.00 0.99 0.99 97 1012.2
20260510015029 9 0 0.0 0.0 0.00 0.99 0.99 97 1012.2
20260510014545 9 0 0.0 0.0 0.00 0.99 0.99 97 1012.3
20260510014030 9 0 0.0 0.0 0.00 0.99 0.99 97 1012.3
20260510013530 9 0 0.0 0.0 0.00 0.99 0.99 97 1012.3
20260510013042 9 0 0.0 0.0 0.00 0.99 0.99 97 1012.4
20260510012530 9 0 0.0 0.0 0.00 0.99 0.99 97 1012.3
20260510012026 9 0 0.0 0.0 0.00 0.99 0.99 97 1012.1
20260510011546 9 0 0.0 0.0 0.00 0.99 0.99 97 1012.0
20260510011026 9 0 0.0 0.0 0.00 0.99 0.99 97 1011.9
20260510010530 9 0 0.0 0.0 0.00 0.99 0.99 97 1011.8
20260510010038 9 0 0.0 0.0 0.00 0.99 0.99 97 1011.6
20260510005530 9 0 0.0 0.0 0.00 0.99 0.99 97 1011.5
20260510005030 9 0 0.0 0.0 0.00 0.99 0.99 97 1011.5
20260510004539 9 0 0.0 0.0 0.00 0.99 0.99 97 1011.4
20260510004029 9 0 0.0 0.0 0.00 0.99 0.99 97 1011.4
20260510003530 9 0 0.0 0.0 0.00 0.99 0.99 97 1011.5
20260510003044 9 0 0.0 0.0 0.00 0.99 0.99 97 1011.4
20260510002529 9 0 0.0 0.0 0.00 0.99 0.99 97 1011.3
20260510002029 9 0 0.0 0.0 0.00 0.99 0.99 97 1011.4
20260510001542 9 0 0.0 0.0 0.00 0.99 0.99 97 1011.4
20260510001029 9 0 0.0 0.0 0.00 0.99 0.99 97 1011.4
20260510000530 9 0 0.0 0.0 0.00 0.99 0.99 97 1011.3
20260510000043 9 0 0.0 0.0 0.00 0.99 0.99 97 1011.4
20260509235529 9 0 0.0 0.0 0.00 0.99 0.99 96 1011.5
20260509235029 9 0 0.0 1.6 0.00 0.99 0.99 96 1011.4
20260509234543 9 0 0.0 1.6 0.00 0.99 0.99 96 1011.4
20260509234031 9 0 0.0 1.6 0.00 0.99 0.99 96 1011.5
20260509233527 9 84 0.0 3.2 0.00 0.99 0.99 96 1011.5
20260509233037 9 0 0.0 3.2 0.00 0.99 0.99 96 1011.7
20260509232535 9 354 0.0 3.2 0.00 0.99 0.99 96 1011.7
20260509232030 9 0 0.0 3.2 0.00 0.99 0.99 96 1011.6
20260509231545 9 0 0.0 1.6 0.00 0.99 0.99 96 1011.5
20260509231029 9 0 0.0 1.6 0.00 0.99 0.99 96 1011.5
20260509230529 9 0 0.0 1.6 0.00 0.99 0.99 96 1011.4
20260509230047 9 333 0.0 1.6 0.00 0.99 0.99 96 1011.5
20260509225529 9 0 0.0 0.0 0.00 0.99 0.99 96 1011.5
20260509225029 9 0 0.0 0.0 0.00 0.99 0.99 96 1011.4
20260509224543 9 0 0.0 0.0 0.00 0.99 0.99 96 1011.6
20260509224029 9 0 0.0 0.0 0.00 0.99 0.99 96 1011.4
20260509223529 9 0 0.0 0.0 0.00 0.99 0.99 96 1011.5
20260509223044 9 0 0.0 0.0 0.00 0.99 0.99 96 1011.4
20260509222526 9 0 0.0 0.0 0.03 0.99 0.99 96 1011.3
20260509222026 9 0 0.0 0.0 0.03 0.99 0.99 96 1011.4
20260509221542 8 0 0.0 1.6 0.05 0.99 0.99 96 1011.3
20260509221031 8 0 0.0 1.6 0.05 0.99 0.99 96 1011.5
20260509220531 8 356 0.0 1.6 0.05 0.99 0.99 96 1011.5
20260509220041 8 0 0.0 1.6 0.05 0.99 0.99 96 1011.6
20260509215530 8 346 0.0 1.6 0.08 0.99 0.99 96 1011.3
20260509215029 8 0 0.0 1.6 0.08 0.99 0.99 95 1011.5
20260509214536 8 0 0.0 1.6 0.10 0.99 0.99 95 1011.5
20260509214029 8 0 0.0 0.0 0.10 0.99 0.99 95 1011.5
20260509213530 8 0 0.0 0.0 0.13 0.99 0.99 95 1011.6
20260509213055 8 0 0.0 0.0 0.13 0.99 0.99 95 1011.5
20260509212529 8 0 0.0 0.0 0.13 0.97 0.97 95 1011.7
20260509212029 8 0 0.0 0.0 0.13 0.97 0.97 95 1011.6
20260509211543 8 0 0.0 0.0 0.10 0.94 0.94 95 1011.7
20260509211030 8 0 0.0 1.6 0.13 0.94 0.94 95 1011.8
20260509210530 8 0 0.0 1.6 0.13 0.94 0.94 95 1012.0
20260509210053 8 0 0.0 1.6 0.13 0.94 0.94 95 1011.8
20260509205529 8 0 0.0 1.6 0.13 0.91 0.91 94 1012.1
20260509205027 8 0 0.0 1.6 0.13 0.91 0.91 94 1012.1
20260509204543 8 0 0.0 0.0 0.13 0.89 0.89 94 1012.1
20260509204029 8 0 0.0 0.0 0.13 0.89 0.89 94 1012.1
20260509203526 8 0 0.0 0.0 0.10 0.86 0.86 94 1012.3
20260509203041 8 0 0.0 0.0 0.08 0.84 0.84 94 1012.3
20260509202527 8 0 0.0 1.6 0.10 0.84 0.84 94 1012.4
20260509202030 9 0 0.0 1.6 0.10 0.84 0.84 94 1012.3
20260509201538 8 0 0.0 1.6 0.10 0.84 0.84 94 1012.3
20260509201029 9 0 0.0 0.0 0.08 0.81 0.81 94 1012.4
20260509200529 9 0 0.0 0.0 0.10 0.81 0.81 94 1012.4
20260509200046 9 0 0.0 0.0 0.10 0.81 0.81 94 1012.5
20260509195531 9 0 0.0 1.6 0.08 0.79 0.79 94 1012.6
20260509195029 9 0 0.0 1.6 0.08 0.79 0.79 94 1012.4
20260509194543 9 0 0.0 1.6 0.05 0.76 0.76 94 1012.6
20260509194035 9 0 0.0 1.6 0.05 0.76 0.76 94 1012.5
20260509193532 8 0 0.0 1.6 0.05 0.76 0.76 94 1012.4
20260509193045 8 0 0.0 1.6 0.05 0.76 0.76 94 1012.5
20260509192529 8 0 0.0 0.0 0.03 0.74 0.74 94 1012.5
20260509192029 8 0 0.0 0.0 0.03 0.74 0.74 94 1012.5
20260509191543 8 0 0.0 1.6 0.03 0.74 0.74 94 1012.3
20260509191032 8 0 0.0 1.6 0.03 0.74 0.74 94 1012.6
20260509190529 8 0 0.0 1.6 0.03 0.71 0.71 93 1012.7
20260509190045 8 0 0.0 1.6 0.03 0.71 0.71 93 1012.6
20260509185528 8 296 0.0 1.6 0.03 0.71 0.71 93 1012.4
20260509185028 8 328 0.0 1.6 0.03 0.71 0.71 93 1012.5
20260509184552 8 0 0.0 1.6 0.03 0.71 0.71 93 1012.5
20260509184026 8 0 0.0 1.6 0.03 0.71 0.71 94 1012.4
20260509183526 8 0 0.0 1.6 0.05 0.71 0.71 94 1012.6
20260509183040 8 0 0.0 3.2 0.05 0.71 0.71 94 1012.7
20260509182530 8 333 1.6 3.2 0.08 0.71 0.71 93 1012.6
20260509182030 8 326 1.6 3.2 0.08 0.71 0.71 93 1012.7
20260509181552 8 321 0.0 6.4 0.10 0.71 0.71 93 1013.0
20260509181030 8 0 0.0 6.4 0.10 0.71 0.71 93 1013.0
20260509180526 8 37 1.6 6.4 0.08 0.69 0.69 93 1012.8
20260509180046 8 0 0.0 3.2 0.10 0.69 0.69 93 1013.0
20260509175534 8 0 0.0 1.6 0.10 0.69 0.69 94 1012.9
20260509175027 8 191 0.0 1.6 0.10 0.69 0.69 94 1013.1
20260509174538 7 191 0.0 4.8 0.13 0.69 0.69 94 1013.3
20260509174029 7 0 0.0 4.8 0.13 0.69 0.69 94 1013.2
20260509173525 7 300 0.0 4.8 0.10 0.66 0.66 93 1013.2
20260509173046 7 0 1.6 3.2 0.10 0.66 0.66 93 1013.3
20260509172529 7 0 0.0 3.2 0.10 0.64 0.64 93 1013.3
20260509172029 7 323 0.0 3.2 0.10 0.64 0.64 94 1013.3
20260509171542 7 0 0.0 3.2 0.08 0.61 0.61 93 1013.5
20260509171029 7 0 0.0 1.6 0.08 0.61 0.61 93 1013.6
20260509170529 7 0 0.0 1.6 0.10 0.61 0.61 92 1013.6
20260509170049 7 0 0.0 1.6 0.08 0.58 0.58 92 1013.9
20260509165530 7 255 0.0 1.6 0.08 0.58 0.58 93 1013.9
20260509165029 7 0 0.0 1.6 0.08 0.58 0.58 93 1013.8
20260509164544 7 345 0.0 4.8 0.05 0.56 0.56 93 1013.9
20260509164032 7 0 0.0 4.8 0.05 0.56 0.56 92 1014.0
20260509163529 8 270 0.0 1.6 0.08 0.56 0.56 92 1013.8
20260509163039 8 0 0.0 1.6 0.08 0.56 0.56 92 1013.9
20260509162530 8 0 0.0 1.6 0.05 0.53 0.53 92 1014.0
20260509162029 8 0 0.0 1.6 0.05 0.53 0.53 92 1014.1